TimeAKST,TemperatureF,Dew PointF,Humidity,Sea Level PressureIn,VisibilityMPH,Wind Direction,Wind SpeedMPH,Gust SpeedMPH,PrecipitationIn,Events,Conditions,WindDirDegrees,DateUTC
12:16 AM,19.4,17.6,93,29.59,10.0,Calm,Calm,-,N/A,,Overcast,0,2011-11-10 09:16:00
12:36 AM,19.4,17.6,93,29.59,7.0,Calm,Calm,-,N/A,,Overcast,0,2011-11-10 09:36:00
12:56 AM,19.4,15.8,86,29.57,8.0,East,5.8,-,N/A,,Overcast,90,2011-11-10 09:56:00
1:16 AM,19.4,15.8,86,29.57,10.0,ENE,3.5,-,N/A,,Overcast,60,2011-11-10 10:16:00
1:36 AM,19.4,17.6,93,29.57,9.0,ENE,3.5,-,N/A,,Overcast,60,2011-11-10 10:36:00
1:56 AM,19.4,15.8,86,29.57,10.0,Calm,Calm,-,N/A,,Overcast,0,2011-11-10 10:56:00
2:16 AM,19.4,17.6,93,29.55,10.0,East,3.5,-,N/A,,Overcast,90,2011-11-10 11:16:00
2:36 AM,19.4,17.6,93,29.55,10.0,Calm,Calm,-,N/A,,Overcast,0,2011-11-10 11:36:00
2:56 AM,19.4,17.6,93,29.55,5.0,ESE,4.6,-,N/A,,Overcast,110,2011-11-10 11:56:00
3:16 AM,19.4,17.6,93,29.54,2.5,NE,4.6,-,N/A,,Overcast,50,2011-11-10 12:16:00
3:36 AM,19.4,17.6,93,29.54,3.0,East,3.5,-,N/A,,Overcast,100,2011-11-10 12:36:00
3:56 AM,19.4,17.6,93,29.52,10.0,Calm,Calm,-,N/A,,Overcast,0,2011-11-10 12:56:00
4:16 AM,19.4,17.6,93,29.52,10.0,Calm,Calm,-,N/A,,Overcast,0,2011-11-10 13:16:00
4:36 AM,19.4,17.6,93,29.52,10.0,Calm,Calm,-,N/A,,Overcast,0,2011-11-10 13:36:00
4:56 AM,19.4,17.6,93,29.51,10.0,Calm,Calm,-,N/A,,Overcast,0,2011-11-10 13:56:00
5:16 AM,19.4,17.6,93,29.50,10.0,ENE,5.8,-,N/A,,Overcast,60,2011-11-10 14:16:00
5:36 AM,19.4,17.6,93,29.50,7.0,East,3.5,-,N/A,,Overcast,100,2011-11-10 14:36:00
5:56 AM,19.4,17.6,93,29.49,3.0,Calm,Calm,-,N/A,,Overcast,0,2011-11-10 14:56:00
6:16 AM,19.4,19.4,100,29.49,4.0,East,3.5,-,N/A,,Overcast,90,2011-11-10 15:16:00
6:36 AM,19.4,17.6,93,29.49,3.0,Calm,Calm,-,N/A,,Overcast,0,2011-11-10 15:36:00
6:56 AM,19.4,17.6,93,29.49,3.0,Calm,Calm,-,N/A,,Overcast,0,2011-11-10 15:56:00
7:16 AM,19.4,17.6,93,29.49,3.0,North,3.5,-,N/A,,Overcast,10,2011-11-10 16:16:00
7:36 AM,19.4,17.6,93,29.48,2.5,ENE,3.5,-,N/A,,Overcast,70,2011-11-10 16:36:00
7:56 AM,19.4,19.4,100,29.47,3.0,East,4.6,-,N/A,,Overcast,90,2011-11-10 16:56:00
8:16 AM,21.2,19.4,93,29.49,5.0,Calm,Calm,-,N/A,,Overcast,0,2011-11-10 17:16:00
8:36 AM,21.2,19.4,93,29.51,6.0,Calm,Calm,-,N/A,,Overcast,0,2011-11-10 17:36:00
8:56 AM,21.2,19.4,93,29.53,8.0,Calm,Calm,-,N/A,,Overcast,0,2011-11-10 17:56:00
9:16 AM,21.2,19.4,93,29.55,9.0,Calm,Calm,-,N/A,,Overcast,0,2011-11-10 18:16:00
9:36 AM,21.2,19.4,93,29.57,8.0,ESE,3.5,-,N/A,,Overcast,110,2011-11-10 18:36:00
9:56 AM,21.2,19.4,93,29.57,9.0,SE,5.8,-,N/A,,Overcast,130,2011-11-10 18:56:00
10:16 AM,21.2,19.4,93,29.58,10.0,ESE,5.8,-,N/A,,Overcast,120,2011-11-10 19:16:00
10:36 AM,21.2,19.4,93,29.58,10.0,East,6.9,-,N/A,,Overcast,100,2011-11-10 19:36:00
10:56 AM,21.2,19.4,93,29.59,10.0,ESE,5.8,-,N/A,,Overcast,110,2011-11-10 19:56:00
11:16 AM,21.2,19.4,93,29.60,10.0,ESE,4.6,-,N/A,,Overcast,120,2011-11-10 20:16:00
11:36 AM,21.2,19.4,93,29.61,10.0,SE,4.6,-,N/A,,Overcast,140,2011-11-10 20:36:00
11:56 AM,21.2,19.4,93,29.61,10.0,East,3.5,-,N/A,,Mostly Cloudy,100,2011-11-10 20:56:00
12:16 PM,21.2,19.4,93,29.63,10.0,Calm,Calm,-,N/A,,Partly Cloudy,0,2011-11-10 21:16:00
12:36 PM,24.8,21.2,86,29.63,-9999.0,SSE,5.8,-,N/A,,Unknown,160,2011-11-10 21:36:00
12:56 PM,24.8,21.2,86,29.63,9.0,South,5.8,-,N/A,,Clear,170,2011-11-10 21:56:00
1:16 PM,26.6,21.2,80,29.65,10.0,SSW,5.8,-,N/A,,Clear,200,2011-11-10 22:16:00
1:36 PM,26.6,21.2,80,29.66,10.0,WSW,5.8,-,N/A,,Clear,240,2011-11-10 22:36:00
1:56 PM,26.6,21.2,80,29.66,10.0,WSW,3.5,-,N/A,,Clear,240,2011-11-10 22:56:00
2:16 PM,26.6,21.2,80,29.66,10.0,Calm,Calm,-,N/A,,Clear,0,2011-11-10 23:16:00
2:36 PM,24.8,21.2,86,29.67,-9999.0,Calm,Calm,-,N/A,,Unknown,0,2011-11-10 23:36:00
2:56 PM,24.8,23.0,93,29.68,-9999.0,Calm,Calm,-,N/A,,Unknown,0,2011-11-10 23:56:00
3:16 PM,26.6,21.2,80,29.68,-9999.0,Calm,Calm,-,N/A,,Clear,0,2011-11-11 00:16:00
3:36 PM,24.8,21.2,86,29.68,-9999.0,Calm,Calm,-,N/A,,Unknown,0,2011-11-11 00:36:00
3:56 PM,24.8,21.2,86,29.69,-9999.0,Calm,Calm,-,N/A,,Unknown,0,2011-11-11 00:56:00
4:16 PM,24.8,21.2,86,29.69,10.0,SSE,4.6,-,N/A,,Clear,160,2011-11-11 01:16:00
4:36 PM,24.8,24.8,100,29.70,10.0,East,4.6,-,N/A,,Clear,80,2011-11-11 01:36:00
4:56 PM,21.2,21.2,100,29.71,10.0,ESE,3.5,-,N/A,,Clear,110,2011-11-11 01:56:00
5:16 PM,17.6,17.6,100,29.72,10.0,SE,4.6,-,N/A,,Clear,140,2011-11-11 02:16:00
5:36 PM,19.4,17.6,93,29.72,10.0,East,3.5,-,N/A,,Clear,100,2011-11-11 02:36:00
5:56 PM,19.4,19.4,100,29.73,10.0,Calm,Calm,-,N/A,,Clear,0,2011-11-11 02:56:00
6:16 PM,19.4,17.6,93,29.74,10.0,ENE,3.5,-,N/A,,Clear,70,2011-11-11 03:16:00
6:56 PM,21.2,19.4,93,29.74,10.0,Calm,Calm,-,N/A,,Clear,0,2011-11-11 03:56:00
7:16 PM,23.0,19.4,86,29.74,10.0,Calm,Calm,-,N/A,,Clear,0,2011-11-11 04:16:00
7:36 PM,19.4,14.0,80,29.75,10.0,East,5.8,-,N/A,,Clear,90,2011-11-11 04:36:00
7:56 PM,17.6,12.2,79,29.76,10.0,Calm,Calm,-,N/A,,Clear,0,2011-11-11 04:56:00
8:16 PM,15.8,10.4,79,29.77,10.0,NE,3.5,-,N/A,,Clear,50,2011-11-11 05:16:00
8:36 PM,15.8,10.4,79,29.77,10.0,ESE,3.5,-,N/A,,Clear,110,2011-11-11 05:36:00
8:56 PM,14.0,12.2,93,29.78,10.0,ESE,3.5,-,N/A,,Clear,110,2011-11-11 05:56:00
9:16 PM,15.8,15.8,100,29.79,10.0,East,5.8,-,N/A,,Clear,80,2011-11-11 06:16:00
9:36 PM,14.0,14.0,100,29.79,10.0,East,3.5,-,N/A,,Clear,100,2011-11-11 06:36:00
9:56 PM,15.8,12.2,86,29.80,10.0,East,4.6,-,N/A,,Clear,80,2011-11-11 06:56:00
10:16 PM,12.2,6.8,79,29.80,10.0,East,4.6,-,N/A,,Clear,90,2011-11-11 07:16:00
10:36 PM,14.0,12.2,93,29.81,10.0,ENE,4.6,-,N/A,,Clear,70,2011-11-11 07:36:00
10:56 PM,10.4,8.6,92,29.81,10.0,East,3.5,-,N/A,,Clear,80,2011-11-11 07:56:00
11:16 PM,8.6,6.8,92,29.81,10.0,East,4.6,-,N/A,,Clear,90,2011-11-11 08:16:00
11:36 PM,10.4,8.6,92,29.82,10.0,NE,3.5,-,N/A,,Clear,40,2011-11-11 08:36:00
11:56 PM,10.4,6.8,85,29.83,10.0,Calm,Calm,-,N/A,,Clear,0,2011-11-11 08:56:00